Location: Unspecified
(40.9799°N, 76.1133°W)
Time: 00:51:10
(UTC-04:00)

X-37B - Visible Passes

Search period start: 25 June 2021 00:00
Search period end: 05 July 2021 00:00
Orbit: 386 x 389 km, 45.0° (Epoch: 23 June)

Date Brightness Start Highest point End Pass type
(mag) Time Alt. Az. Time Alt. Az. Time Alt. Az.
25 Jun 1.4 22:21:33 10° W 22:24:40 52° NNW 22:27:48 10° ENE visible
25 Jun 2.3 23:58:38 10° WNW 00:00:57 33° NNW 00:00:57 33° NNW visible
26 Jun 0.8 21:23:05 10° WSW 21:26:15 77° NNW 21:29:26 10° ENE visible
26 Jun 2.0 23:00:09 10° WNW 23:03:09 37° N 23:05:02 19° ENE visible
27 Jun 3.6 00:36:56 10° WNW 00:37:17 12° WNW 00:37:17 12° WNW visible
27 Jun 1.9 22:01:37 10° W 22:04:39 41° N 22:07:42 10° ENE visible
27 Jun 1.8 23:38:34 10° WNW 23:41:16 42° NNW 23:41:16 42° NNW visible
28 Jun 1.9 22:40:09 10° WNW 22:43:10 38° N 22:45:11 17° ENE visible
29 Jun 3.3 00:16:50 10° WNW 00:17:27 15° WNW 00:17:27 15° WNW visible
29 Jun 2.0 21:41:40 10° WNW 21:44:40 37° N 21:47:40 10° ENE visible
29 Jun 1.2 23:18:28 10° WNW 23:21:21 57° NNW 23:21:21 57° NNW visible
30 Jun 1.6 22:20:06 10° WNW 22:23:10 45° N 22:25:14 18° ENE visible
30 Jun 3.2 23:56:46 10° WNW 23:57:30 16° WNW 23:57:30 16° WNW visible
01 Jul 1.9 21:21:41 10° WNW 21:24:41 38° N 21:27:42 10° ENE visible
01 Jul 0.5 22:58:20 10° WNW 23:01:24 81° WNW 23:01:24 81° WNW visible
02 Jul 1.0 21:59:59 10° WNW 22:03:08 60° NNE 22:05:20 18° E visible
02 Jul 3.2 23:36:50 10° W 23:37:35 15° W 23:37:35 15° W visible
03 Jul 0.8 22:38:17 10° WNW 22:41:23 51° SSW 22:41:31 51° SSW visible
04 Jul 0.5 21:39:52 10° WNW 21:43:03 88° SSW 21:45:30 16° ESE visible
04 Jul 3.3 23:17:18 10° WSW 23:17:46 12° WSW 23:17:46 12° WSW visible
